This demonstration page uses our WeatherBlox Daily Observations layout. Learn more.

Left ArrowRight Arrow

34.16533, -84.80231

Hourly Observations for October 5, 2020

Temp ( °F °C ) Dew Point ( °F °C ) Humidity (%) Winds ( mph kmh ) Pressure ( in mb ) Visibility ( mi km ) Precip ( " mm )
12:53 am 00:53 Clear 52 11.1 50 10 93 93 Calm 30.12 1020 10 16 0.00 0.00
1:53 am 01:53 Clear 52 11.1 49 9.4 89 89 Calm 30.12 1020 10 16 0.00 0.00
2:20 am 02:20 Partly Cloudy with Mist and Fog 54 12.2 51 10.6 90 90 Calm 30.16 1021 3 5 0.00 0.00
2:23 am 02:23 Mostly Cloudy with Mist and Fog 54 12.2 52 11.1 93 93 Calm 30.17 1022 3 4 0.00 0.00
2:34 am 02:34 Mostly Cloudy with Mist and Fog 53 11.7 52 11.1 96 96 SSW 3 6 30.16 1021 1 2 0.00 0.00
2:42 am 02:42 Cloudy with Mist and Fog 53 11.7 51 10.6 93 93 Calm 30.16 1021 3 5 0.00 0.00
2:53 am 02:53 Mostly Cloudy 53 11.7 50 10 89 89 Calm 30.14 1021 7 11 0.00 0.00
3:12 am 03:12 Cloudy with Mist and Fog 53 11.7 51 10.6 93 93 Calm 30.16 1021 2 3 0.00 0.00
3:25 am 03:25 Mostly Cloudy with Mist and Fog 53 11.7 51 10.6 93 93 Calm 30.16 1021 1 1 0.00 0.00
3:41 am 03:41 Cloudy with Mist and Fog 51 10.6 49 9.4 92 92 Calm 30.17 1022 3 4 0.00 0.00
3:48 am 03:48 Mostly Cloudy with Mist and Fog 52 11 48 9 88 88 Calm 30.17 1022 3 5 0.00 0.00
3:53 am 03:53 Mostly Cloudy with Mist and Fog 52 11.1 50 10 93 93 Calm 30.13 1020 3 5 0.00 0.00
4:04 am 04:04 Mostly Cloudy with Mist and Fog 52 11.1 50 10 93 93 Calm 30.17 1022 2 3 0.00 0.00
4:26 am 04:26 Mostly Cloudy with Mist and Fog 51 10.6 50 10 96 96 Calm 30.17 1022 3 5 0.00 0.00
4:35 am 04:35 Partly Cloudy with Mist and Fog 52 11.1 50 10 93 93 Calm 30.17 1022 6 10 0.00 0.00
4:53 am 04:53 Clear 51 10.6 49 9.4 92 92 Calm 30.13 1020 8 13 0.00 0.00
5:53 am 05:53 Clear 52 11.1 50 10 93 93 Calm 30.15 1021 8 13 0.00 0.00
6:53 am 06:53 Clear 52 11.1 50 10 93 93 Calm 30.16 1021 8 13 0.00 0.00
7:53 am 07:53 Sunny with Mist and Fog 52 11.1 49 9.4 89 89 Calm 30.18 1022 6 10 0.00 0.00
8:53 am 08:53 Sunny 56 13.3 53 11.7 90 90 Calm 30.19 1022 9 14 0.00 0.00
9:31 am 09:31 Mostly Sunny 59 15 54 12.2 83 83 Calm 30.21 1023 10 16 0.00 0.00
9:53 am 09:53 Mostly Sunny 60 15.6 54 12.2 80 80 NNE 3 6 30.19 1023 9 14 0.00 0.00
10:53 am 10:53 Sunny 64 17.8 54 12.2 70 70 Calm 30.21 1023 10 16 0.00 0.00
11:53 am 11:53 Sunny 69 20.6 55 12.8 61 61 Calm 30.19 1023 10 16 0.00 0.00
12:53 pm 12:53 Sunny 74 23.3 54 12.2 50 50 NNE 6 9 30.17 1022 10 16 0.00 0.00
1:53 pm 13:53 Sunny 74 23.3 52 11.1 46 46 Calm 30.14 1021 10 16 0.00 0.00
2:53 pm 14:53 Sunny 77 25 52 11.1 42 42 VRB 5 7 30.12 1020 10 16 0.00 0.00
3:53 pm 15:53 Sunny 77 25 53 11.7 43 43 VRB 5 7 30.10 1019 10 16 0.00 0.00
4:53 pm 16:53 Sunny 78 25.6 52 11.1 40 40 Calm 30.09 1019 10 16 0.00 0.00
5:53 pm 17:53 Sunny 76 24.4 51 10.6 42 42 Calm 30.09 1019 10 16 0.00 0.00
6:53 pm 18:53 Sunny 67 19.4 58 14.4 73 73 Calm 30.09 1019 10 16 0.00 0.00
7:53 pm 19:53 Clear 60 15.6 56 13.3 86 86 Calm 30.10 1019 10 16 0.00 0.00
8:53 pm 20:53 Clear 58 14.4 55 12.8 90 90 Calm 30.11 1020 10 16 0.00 0.00
9:53 pm 21:53 Clear 57 13.9 54 12.2 90 90 Calm 30.11 1020 10 16 0.00 0.00
10:53 pm 22:53 Clear 56 13.3 53 11.7 90 90 Calm 30.13 1020 10 16 0.00 0.00
11:53 pm 23:53 Clear 55 12.8 52 11.1 90 90 Calm 30.13 1020 10 16 0.00 0.00

Powered by AerisWeather